| time (UTC) | temp F | wind direction | speed knots | gust knots | rain 1hr in | rain 24hr in | rain mn in | humidity % | barometer mb |
| 20260510101801 | 66 | 299 | 4.3 | 7.8 | 0.00 | 0.00 | 0.00 | 49 | 1008.0 |
| 20260510101301 | 65 | 332 | 3.5 | 7.0 | 0.00 | 0.00 | 0.00 | 51 | 1008.0 |
| 20260510100802 | 65 | 329 | 4.3 | 7.8 | 0.00 | 0.00 | 0.00 | 51 | 1008.1 |
| 20260510100302 | 65 | 321 | 5.2 | 7.8 | 0.00 | 0.00 | 0.00 | 52 | 1008.1 |
| 20260510095809 | 65 | 238 | 5.2 | 9.6 | 0.00 | 0.00 | 0.00 | 52 | 1008.0 |
| 20260510095305 | 65 | 305 | 5.2 | 9.6 | 0.00 | 0.00 | 0.00 | 53 | 1008.0 |
| 20260510094801 | 65 | 272 | 3.5 | 8.7 | 0.00 | 0.00 | 0.00 | 53 | 1008.1 |
| 20260510093801 | 65 | 316 | 3.5 | 6.1 | 0.00 | 0.00 | 0.00 | 54 | 1008.1 |
| 20260510093302 | 64 | 283 | 3.5 | 6.1 | 0.00 | 0.00 | 0.00 | 55 | 1008.1 |
| 20260510092800 | 64 | 252 | 3.5 | 7.0 | 0.00 | 0.00 | 0.00 | 55 | 1008.1 |
| 20260510092306 | 64 | 316 | 4.3 | 7.0 | 0.00 | 0.00 | 0.00 | 54 | 1008.2 |
| 20260510090802 | 64 | 305 | 5.2 | 9.6 | 0.00 | 0.00 | 0.00 | 55 | 1008.2 |
| 20260510090302 | 63 | 355 | 4.3 | 7.8 | 0.00 | 0.00 | 0.00 | 55 | 1008.0 |
| 20260510085802 | 63 | 320 | 3.5 | 7.0 | 0.00 | 0.00 | 0.00 | 55 | 1008.1 |
| 20260510084802 | 63 | 293 | 3.5 | 6.1 | 0.00 | 0.00 | 0.00 | 57 | 1008.1 |
| 20260510084300 | 63 | 305 | 4.3 | 7.8 | 0.00 | 0.00 | 0.00 | 58 | 1008.2 |
| 20260510083801 | 63 | 309 | 4.3 | 7.8 | 0.00 | 0.00 | 0.00 | 58 | 1008.2 |
| 20260510083303 | 62 | 311 | 2.6 | 7.0 | 0.00 | 0.00 | 0.00 | 59 | 1008.2 |
| 20260510082801 | 62 | 328 | 2.6 | 6.1 | 0.00 | 0.00 | 0.00 | 59 | 1008.2 |
| 20260510082301 | 62 | 8 | 3.5 | 7.8 | 0.00 | 0.00 | 0.00 | 60 | 1008.1 |
| 20260510081801 | 61 | 322 | 3.5 | 7.8 | 0.00 | 0.00 | 0.00 | 62 | 1008.1 |
| 20260510081258 | 61 | 326 | 1.7 | 6.1 | 0.00 | 0.00 | 0.00 | 63 | 1008.1 |
| 20260510080757 | 61 | 39 | 2.6 | 4.3 | 0.00 | 0.00 | 0.00 | 62 | 1008.1 |
| 20260510080253 | 60 | 265 | 2.6 | 4.3 | 0.00 | 0.00 | 0.00 | 62 | 1008.1 |
| 20260510075753 | 60 | 234 | 2.6 | 3.5 | 0.00 | 0.00 | 0.00 | 63 | 1008.1 |
| 20260510075253 | 60 | 264 | 2.6 | 4.3 | 0.00 | 0.00 | 0.00 | 63 | 1008.1 |
| 20260510074752 | 60 | 261 | 3.5 | 4.3 | 0.00 | 0.00 | 0.00 | 63 | 1008.1 |
| 20260510074236 | 59 | 252 | 3.5 | 5.2 | 0.00 | 0.00 | 0.00 | 64 | 1008.0 |
| 20260510073731 | 59 | 277 | 3.5 | 5.2 | 0.00 | 0.00 | 0.00 | 64 | 1008.0 |
| 20260510073233 | 59 | 279 | 2.6 | 5.2 | 0.00 | 0.00 | 0.00 | 64 | 1008.0 |
| 20260510072730 | 59 | 263 | 2.6 | 3.5 | 0.00 | 0.00 | 0.00 | 67 | 1008.0 |
| 20260510072230 | 59 | 317 | 2.6 | 4.3 | 0.00 | 0.00 | 0.00 | 66 | 1008.0 |
| 20260510071731 | 59 | 303 | 2.6 | 6.1 | 0.00 | 0.00 | 0.00 | 67 | 1008.0 |
| 20260510071231 | 59 | 294 | 2.6 | 6.1 | 0.00 | 0.00 | 0.00 | 68 | 1008.0 |
| 20260510070729 | 59 | 302 | 1.7 | 4.3 | 0.00 | 0.00 | 0.00 | 68 | 1007.9 |
| 20260510070229 | 59 | 267 | 0.0 | 2.6 | 0.00 | 0.00 | 0.00 | 68 | 1007.9 |
| 20260510065729 | 59 | 195 | 0.0 | 0.9 | 0.00 | 0.00 | 0.00 | 64 | 1007.9 |
| 20260510065246 | 59 | 195 | 0.9 | 0.9 | 0.00 | 0.00 | 0.00 | 63 | 1007.9 |
| 20260510064229 | 59 | 195 | 0.9 | 2.6 | 0.00 | 0.00 | 0.00 | 65 | 1007.9 |
| 20260510063729 | 59 | 195 | 0.9 | 2.6 | 0.00 | 0.00 | 0.00 | 65 | 1007.9 |
| 20260510063245 | 59 | 241 | 0.9 | 1.7 | 0.00 | 0.00 | 0.00 | 65 | 1007.8 |
| 20260510062730 | 59 | 241 | 0.9 | 1.7 | 0.00 | 0.00 | 0.00 | 66 | 1007.8 |
| 20260510062231 | 58 | 191 | 0.9 | 3.5 | 0.00 | 0.00 | 0.00 | 67 | 1007.6 |
| 20260510061730 | 58 | 184 | 1.7 | 4.3 | 0.00 | 0.00 | 0.00 | 67 | 1007.6 |
| 20260510060231 | 58 | 196 | 1.7 | 3.5 | 0.00 | 0.00 | 0.00 | 68 | 1007.8 |
| 20260510055731 | 58 | 192 | 1.7 | 3.5 | 0.00 | 0.00 | 0.00 | 70 | 1007.6 |
| 20260510055231 | 58 | 192 | 1.7 | 3.5 | 0.00 | 0.00 | 0.00 | 71 | 1007.5 |
| 20260510054730 | 58 | 167 | 2.6 | 5.2 | 0.00 | 0.00 | 0.00 | 71 | 1007.5 |
| 20260510053730 | 57 | 153 | 2.6 | 4.3 | 0.00 | 0.00 | 0.00 | 73 | 1007.4 |
| 20260510052745 | 56 | 148 | 1.7 | 4.3 | 0.00 | 0.00 | 0.00 | 75 | 1007.4 |
| 20260510051729 | 55 | 145 | 0.9 | 1.7 | 0.00 | 0.00 | 0.00 | 80 | 1007.2 |
| 20260510051230 | 54 | 188 | 1.7 | 3.5 | 0.00 | 0.00 | 0.00 | 80 | 1007.0 |
| 20260510050730 | 54 | 209 | 1.7 | 3.5 | 0.00 | 0.00 | 0.00 | 80 | 1007.0 |
| 20260510050245 | 53 | 228 | 0.9 | 2.6 | 0.00 | 0.00 | 0.00 | 81 | 1006.9 |
| 20260510045728 | 53 | 210 | 0.9 | 2.6 | 0.00 | 0.00 | 0.00 | 82 | 1006.9 |
| 20260510044728 | 53 | 174 | 0.9 | 2.6 | 0.00 | 0.00 | 0.00 | 82 | 1007.0 |
| 20260510044228 | 53 | 189 | 1.7 | 2.6 | 0.00 | 0.00 | 0.00 | 82 | 1007.1 |
| 20260510043231 | 52 | 175 | 2.6 | 4.3 | 0.00 | 0.00 | 0.00 | 82 | 1007.0 |
| 20260510042730 | 52 | 173 | 2.6 | 4.3 | 0.00 | 0.00 | 0.00 | 83 | 1007.1 |
| 20260510042230 | 52 | 161 | 1.7 | 4.3 | 0.00 | 0.00 | 0.00 | 82 | 1007.1 |
| 20260510041730 | 52 | 171 | 0.9 | 2.6 | 0.00 | 0.00 | 0.00 | 81 | 1007.1 |
| 20260510041232 | 52 | 201 | 0.9 | 2.6 | 0.00 | 0.00 | 0.00 | 81 | 1007.1 |
| 20260510040231 | 53 | 265 | 0.9 | 1.7 | 0.00 | 0.00 | 0.00 | 80 | 1007.2 |
| 20260510035731 | 53 | 265 | 0.9 | 1.7 | 0.00 | 0.00 | 0.00 | 80 | 1007.3 |
| 20260510035229 | 53 | 274 | 1.7 | 3.5 | 0.00 | 0.00 | 0.00 | 79 | 1007.3 |
| 20260510034732 | 53 | 286 | 2.6 | 5.2 | 0.00 | 0.00 | 0.00 | 79 | 1007.3 |
| 20260510034231 | 53 | 249 | 2.6 | 5.2 | 0.00 | 0.00 | 0.00 | 78 | 1007.3 |
| 20260510033730 | 54 | 232 | 1.7 | 3.5 | 0.00 | 0.00 | 0.00 | 76 | 1007.4 |
| 20260510033229 | 55 | 247 | 1.7 | 3.5 | 0.00 | 0.00 | 0.00 | 75 | 1007.4 |
| 20260510032729 | 55 | 230 | 1.7 | 3.5 | 0.00 | 0.00 | 0.00 | 74 | 1007.4 |
| 20260510032228 | 55 | 245 | 1.7 | 3.5 | 0.00 | 0.00 | 0.00 | 73 | 1007.4 |
| 20260510031730 | 56 | 165 | 2.6 | 4.3 | 0.00 | 0.00 | 0.00 | 72 | 1007.5 |
| 20260510031233 | 56 | 178 | 4.3 | 12.2 | 0.00 | 0.00 | 0.00 | 71 | 1007.8 |
| 20260510030743 | 57 | 196 | 8.7 | 16.5 | 0.00 | 0.00 | 0.00 | 70 | 1007.6 |
| 20260510030232 | 58 | 105 | 9.6 | 16.5 | 0.00 | 0.00 | 0.00 | 69 | 1007.8 |
| 20260510025729 | 58 | 118 | 9.6 | 13.9 | 0.00 | 0.00 | 0.00 | 67 | 1007.9 |
| 20260510025229 | 58 | 107 | 10.4 | 13.9 | 0.00 | 0.00 | 0.00 | 67 | 1007.8 |
| 20260510024729 | 58 | 103 | 11.3 | 13.0 | 0.00 | 0.00 | 0.00 | 67 | 1007.8 |
| 20260510024230 | 58 | 105 | 11.3 | 13.9 | 0.00 | 0.00 | 0.00 | 69 | 1007.8 |
| 20260510023729 | 58 | 97 | 11.3 | 13.9 | 0.00 | 0.00 | 0.00 | 69 | 1007.8 |
| 20260510023229 | 58 | 99 | 10.4 | 12.2 | 0.00 | 0.00 | 0.00 | 69 | 1007.9 |
| 20260510022729 | 58 | 99 | 10.4 | 15.6 | 0.00 | 0.00 | 0.00 | 70 | 1008.0 |
| 20260510022230 | 57 | 107 | 10.4 | 15.6 | 0.00 | 0.00 | 0.00 | 71 | 1008.0 |
| 20260510021728 | 57 | 109 | 9.6 | 13.0 | 0.00 | 0.00 | 0.00 | 72 | 1008.0 |
| 20260510021228 | 57 | 111 | 9.6 | 11.3 | 0.00 | 0.00 | 0.00 | 74 | 1007.9 |
| 20260510020729 | 57 | 109 | 8.7 | 12.2 | 0.00 | 0.00 | 0.00 | 73 | 1008.0 |
| 20260510020230 | 57 | 104 | 8.7 | 12.2 | 0.00 | 0.00 | 0.00 | 73 | 1008.1 |
| 20260510015228 | 57 | 98 | 10.4 | 12.2 | 0.00 | 0.00 | 0.00 | 76 | 1008.2 |
| 20260510014729 | 58 | 92 | 10.4 | 12.2 | 0.00 | 0.00 | 0.00 | 76 | 1008.2 |
| 20260510014228 | 58 | 108 | 10.4 | 13.0 | 0.00 | 0.00 | 0.00 | 75 | 1008.2 |
| 20260510013726 | 58 | 106 | 11.3 | 13.0 | 0.00 | 0.00 | 0.00 | 73 | 1008.3 |
| 20260510012219 | 58 | 95 | 12.2 | 15.6 | 0.00 | 0.00 | 0.00 | 75 | 1008.4 |
| 20260510011212 | 58 | 99 | 10.4 | 12.2 | 0.00 | 0.00 | 0.00 | 79 | 1008.4 |
| 20260510010713 | 58 | 103 | 9.6 | 11.3 | 0.00 | 0.00 | 0.00 | 77 | 1008.5 |
| 20260510005708 | 57 | 128 | 10.4 | 12.2 | 0.00 | 0.00 | 0.00 | 76 | 1008.5 |
| 20260510004705 | 57 | 122 | 6.1 | 11.3 | 0.00 | 0.00 | 0.00 | 76 | 1008.5 |
| 20260510004205 | 57 | 143 | 4.3 | 7.8 | 0.00 | 0.00 | 0.00 | 76 | 1008.5 |
| 20260510003703 | 57 | 171 | 4.3 | 7.0 | 0.00 | 0.00 | 0.00 | 76 | 1008.6 |
| 20260510002704 | 57 | 159 | 5.2 | 7.8 | 0.00 | 0.00 | 0.00 | 75 | 1008.7 |
| 20260510002203 | 57 | 163 | 4.3 | 7.8 | 0.00 | 0.00 | 0.00 | 75 | 1008.7 |
| 20260510001702 | 57 | 128 | 3.5 | 7.0 | 0.00 | 0.00 | 0.00 | 75 | 1008.8 |
| 20260510001202 | 58 | 195 | 3.5 | 4.3 | 0.00 | 0.00 | 0.00 | 74 | 1008.9 |
| 20260510000700 | 58 | 194 | 3.5 | 4.3 | 0.00 | 0.00 | 0.00 | 74 | 1008.9 |
| 20260510000200 | 58 | 195 | 3.5 | 5.2 | 0.00 | 0.00 | 0.00 | 73 | 1009.0 |
| 20260509235701 | 58 | 174 | 2.6 | 5.2 | 0.00 | 0.00 | 0.00 | 73 | 1009.1 |
| 20260509235218 | 58 | 145 | 1.7 | 4.3 | 0.00 | 0.00 | 0.00 | 72 | 1009.1 |
| 20260509234701 | 59 | 158 | 0.9 | 3.5 | 0.00 | 0.00 | 0.00 | 72 | 1009.2 |
| 20260509234201 | 59 | 181 | 1.7 | 2.6 | 0.00 | 0.00 | 0.00 | 72 | 1009.2 |
| 20260509232202 | 59 | 145 | 4.3 | 9.6 | 0.00 | 0.00 | 0.00 | 73 | 1009.4 |
| 20260509231702 | 59 | 103 | 0.9 | 4.3 | 0.00 | 0.00 | 0.00 | 72 | 1009.4 |
| 20260509231203 | 59 | 115 | 0.9 | 1.7 | 0.00 | 0.00 | 0.00 | 72 | 1009.4 |
| 20260509230201 | 59 | 84 | 0.9 | 1.7 | 0.00 | 0.00 | 0.00 | 73 | 1009.3 |
| 20260509225703 | 59 | 84 | 0.9 | 1.7 | 0.00 | 0.00 | 0.00 | 73 | 1009.4 |
| 20260509225204 | 59 | 110 | 0.9 | 3.5 | 0.00 | 0.00 | 0.00 | 72 | 1009.4 |
| 20260509224702 | 59 | 110 | 1.7 | 3.5 | 0.00 | 0.00 | 0.00 | 72 | 1009.5 |
| 20260509223204 | 60 | 113 | 0.9 | 3.5 | 0.00 | 0.00 | 0.00 | 79 | 1009.5 |
| 20260509222702 | 60 | 113 | 1.7 | 3.5 | 0.00 | 0.00 | 0.00 | 76 | 1009.5 |
| 20260509221702 | 60 | 113 | 3.5 | 4.3 | 0.00 | 0.00 | 0.00 | 76 | 1009.7 |
| 20260509221218 | 60 | 113 | 3.5 | 4.3 | 0.00 | 0.00 | 0.00 | 76 | 1009.5 |
| 20260509220703 | 60 | 111 | 4.3 | 5.2 | 0.00 | 0.00 | 0.00 | 76 | 1009.5 |
| 20260509220517 | 60 | 101 | 4.3 | 6.1 | 0.00 | 0.00 | 0.00 | 76 | 1009.7 |
| 20260509215715 | 60 | 106 | 5.2 | 6.1 | 0.00 | 0.00 | 0.00 | 76 | 1009.7 |
| 20260509215202 | 60 | 101 | 5.2 | 7.0 | 0.00 | 0.00 | 0.00 | 76 | 1009.7 |
| 20260509214702 | 60 | 107 | 4.3 | 7.0 | 0.00 | 0.00 | 0.00 | 76 | 1009.9 |
| 20260509214202 | 60 | 118 | 3.5 | 5.2 | 0.00 | 0.00 | 0.00 | 74 | 1009.9 |
| 20260509213700 | 61 | 132 | 1.7 | 4.3 | 0.00 | 0.00 | 0.00 | 71 | 1010.0 |
| 20260509213202 | 61 | 97 | 2.6 | 4.3 | 0.00 | 0.00 | 0.00 | 71 | 1010.0 |
| 20260509212701 | 61 | 97 | 3.5 | 4.3 | 0.00 | 0.00 | 0.00 | 70 | 1010.1 |
| 20260509212156 | 61 | 129 | 2.6 | 4.3 | 0.00 | 0.00 | 0.00 | 71 | 1010.2 |
| 20260509211653 | 61 | 148 | 2.6 | 5.2 | 0.00 | 0.00 | 0.00 | 70 | 1010.3 |
| 20260509210629 | 62 | 118 | 2.6 | 5.2 | 0.00 | 0.00 | 0.00 | 67 | 1010.3 |
| 20260509210131 | 62 | 132 | 1.7 | 3.5 | 0.00 | 0.00 | 0.00 | 65 | 1010.4 |
| 20260509205629 | 63 | 114 | 1.7 | 3.5 | 0.00 | 0.00 | 0.00 | 63 | 1010.4 |
| 20260509205129 | 63 | 114 | 0.9 | 3.5 | 0.00 | 0.00 | 0.00 | 60 | 1010.5 |
| 20260509204629 | 64 | 57 | 0.9 | 1.7 | 0.00 | 0.00 | 0.00 | 59 | 1010.5 |
| 20260509203631 | 65 | 38 | 0.9 | 2.6 | 0.00 | 0.00 | 0.00 | 56 | 1010.6 |
| 20260509203132 | 65 | 278 | 0.9 | 2.6 | 0.00 | 0.00 | 0.00 | 55 | 1010.6 |
| 20260509202629 | 65 | 278 | 0.9 | 2.6 | 0.00 | 0.00 | 0.00 | 54 | 1010.6 |
| 20260509202129 | 66 | 281 | 1.7 | 3.5 | 0.00 | 0.00 | 0.00 | 53 | 1010.7 |
| 20260509201615 | 66 | 282 | 1.7 | 3.5 | 0.00 | 0.00 | 0.00 | 52 | 1010.6 |
| 20260509200606 | 66 | 282 | 2.6 | 5.2 | 0.00 | 0.00 | 0.00 | 51 | 1010.6 |
| 20260509200105 | 66 | 295 | 3.5 | 6.1 | 0.00 | 0.00 | 0.00 | 50 | 1010.6 |
| 20260509195605 | 66 | 278 | 4.3 | 6.1 | 0.00 | 0.00 | 0.00 | 51 | 1010.7 |
| 20260509195103 | 66 | 269 | 3.5 | 5.2 | 0.00 | 0.00 | 0.00 | 51 | 1010.7 |
| 20260509194605 | 66 | 291 | 3.5 | 5.2 | 0.00 | 0.00 | 0.00 | 51 | 1010.7 |
| 20260509194101 | 67 | 278 | 2.6 | 4.3 | 0.00 | 0.00 | 0.00 | 50 | 1010.7 |
| 20260509193601 | 67 | 286 | 2.6 | 4.3 | 0.00 | 0.00 | 0.00 | 50 | 1010.7 |
| 20260509193101 | 67 | 278 | 1.7 | 4.3 | 0.00 | 0.00 | 0.00 | 50 | 1010.6 |
| 20260509192603 | 67 | 298 | 1.7 | 3.5 | 0.00 | 0.00 | 0.00 | 49 | 1010.8 |
| 20260509192104 | 68 | 308 | 0.9 | 3.5 | 0.00 | 0.00 | 0.00 | 48 | 1010.8 |
| 20260509191600 | 68 | 13 | 0.9 | 2.6 | 0.00 | 0.00 | 0.00 | 47 | 1010.8 |
| 20260509191103 | 68 | 13 | 0.9 | 2.6 | 0.00 | 0.00 | 0.00 | 47 | 1010.8 |
| 20260509190604 | 68 | 309 | 0.9 | 1.7 | 0.00 | 0.00 | 0.00 | 47 | 1010.8 |
| 20260509184602 | 68 | 303 | 4.3 | 7.8 | 0.00 | 0.00 | 0.00 | 47 | 1010.9 |
| 20260509184132 | 68 | 298 | 5.2 | 7.8 | 0.00 | 0.00 | 0.00 | 46 | 1010.8 |
| 20260509183600 | 68 | 264 | 3.5 | 7.0 | 0.00 | 0.00 | 0.00 | 47 | 1010.8 |
| 20260509183103 | 69 | 274 | 2.6 | 6.1 | 0.00 | 0.00 | 0.00 | 47 | 1010.8 |
| 20260509182601 | 69 | 218 | 3.5 | 7.0 | 0.00 | 0.00 | 0.00 | 46 | 1010.8 |
| 20260509181602 | 69 | 254 | 3.5 | 7.0 | 0.00 | 0.00 | 0.00 | 46 | 1010.9 |
| 20260509181103 | 69 | 214 | 2.6 | 7.8 | 0.00 | 0.00 | 0.00 | 45 | 1010.8 |
| 20260509180602 | 70 | 32 | 2.6 | 7.8 | 0.00 | 0.00 | 0.00 | 47 | 1010.8 |
| 20260509175602 | 70 | 308 | 6.1 | 11.3 | 0.00 | 0.00 | 0.00 | 45 | 1010.8 |
| 20260509174602 | 70 | 355 | 6.1 | 12.2 | 0.00 | 0.00 | 0.00 | 44 | 1010.7 |
| 20260509173603 | 71 | 350 | 4.3 | 8.7 | 0.00 | 0.00 | 0.00 | 43 | 1010.7 |
| 20260509173101 | 71 | 335 | 5.2 | 11.3 | 0.00 | 0.00 | 0.00 | 42 | 1010.7 |
| 20260509172600 | 71 | 9 | 7.0 | 12.2 | 0.00 | 0.00 | 0.00 | 42 | 1010.7 |
| 20260509172100 | 71 | 11 | 8.7 | 15.6 | 0.00 | 0.00 | 0.00 | 41 | 1010.7 |
| 20260509171604 | 71 | 9 | 7.0 | 15.6 | 0.00 | 0.00 | 0.00 | 41 | 1010.6 |
| 20260509171103 | 72 | 335 | 5.2 | 9.6 | 0.00 | 0.00 | 0.00 | 42 | 1010.8 |
| 20260509165603 | 72 | 334 | 5.2 | 9.6 | 0.00 | 0.00 | 0.00 | 42 | 1010.8 |
| 20260509165103 | 72 | 355 | 4.3 | 7.8 | 0.00 | 0.00 | 0.00 | 41 | 1010.9 |
| 20260509164602 | 72 | 355 | 4.3 | 7.0 | 0.00 | 0.00 | 0.00 | 40 | 1010.8 |
| 20260509164103 | 72 | 350 | 4.3 | 8.7 | 0.00 | 0.00 | 0.00 | 40 | 1010.8 |
| 20260509163103 | 72 | 0 | 3.5 | 7.8 | 0.00 | 0.00 | 0.00 | 38 | 1011.0 |
| 20260509162602 | 72 | 7 | 2.6 | 5.2 | 0.00 | 0.00 | 0.00 | 38 | 1011.1 |
| 20260509161604 | 72 | 297 | 2.6 | 6.1 | 0.00 | 0.00 | 0.00 | 36 | 1011.2 |
| 20260509161104 | 73 | 17 | 3.5 | 7.0 | 0.00 | 0.00 | 0.00 | 36 | 1011.2 |
| 20260509160602 | 73 | 308 | 4.3 | 7.0 | 0.00 | 0.00 | 0.00 | 36 | 1011.3 |
| 20260509155602 | 73 | 27 | 4.3 | 8.7 | 0.00 | 0.00 | 0.00 | 37 | 1011.6 |
| 20260509155104 | 73 | 32 | 5.2 | 8.7 | 0.00 | 0.00 | 0.00 | 37 | 1011.4 |
| 20260509154102 | 73 | 331 | 2.6 | 8.7 | 0.00 | 0.00 | 0.00 | 36 | 1011.3 |
| 20260509153103 | 73 | 350 | 3.5 | 6.1 | 0.00 | 0.00 | 0.00 | 36 | 1011.6 |
| 20260509152103 | 73 | 350 | 4.3 | 7.8 | 0.00 | 0.00 | 0.00 | 35 | 1011.7 |
| 20260509151603 | 73 | 3 | 5.2 | 8.7 | 0.00 | 0.00 | 0.00 | 35 | 1011.7 |
| 20260509151104 | 73 | 296 | 7.0 | 13.0 | 0.00 | 0.00 | 0.00 | 34 | 1011.7 |
| 20260509150602 | 73 | 314 | 6.1 | 13.0 | 0.00 | 0.00 | 0.00 | 35 | 1011.7 |
| 20260509145603 | 73 | 272 | 5.2 | 8.7 | 0.00 | 0.00 | 0.00 | 34 | 1011.7 |
| 20260509145103 | 73 | 271 | 5.2 | 10.4 | 0.00 | 0.00 | 0.00 | 34 | 1011.7 |
| 20260509144601 | 73 | 245 | 3.5 | 10.4 | 0.00 | 0.00 | 0.00 | 35 | 1011.8 |
| 20260509143601 | 73 | 281 | 3.5 | 7.8 | 0.00 | 0.00 | 0.00 | 36 | 1011.8 |
| 20260509143102 | 73 | 329 | 3.5 | 7.8 | 0.00 | 0.00 | 0.00 | 35 | 1011.8 |
| 20260509142602 | 73 | 3 | 3.5 | 7.8 | 0.00 | 0.00 | 0.00 | 37 | 1011.8 |
| 20260509142102 | 73 | 333 | 4.3 | 8.7 | 0.00 | 0.00 | 0.00 | 35 | 1011.9 |
| 20260509141601 | 73 | 335 | 5.2 | 8.7 | 0.00 | 0.00 | 0.00 | 35 | 1011.9 |
| 20260509141101 | 73 | 269 | 4.3 | 8.7 | 0.00 | 0.00 | 0.00 | 35 | 1011.8 |
| 20260509140602 | 73 | 303 | 2.6 | 7.0 | 0.00 | 0.00 | 0.00 | 35 | 1011.9 |
| 20260509134603 | 73 | 293 | 3.5 | 10.4 | 0.00 | 0.00 | 0.00 | 35 | 1012.3 |
| 20260509134101 | 73 | 299 | 1.7 | 7.0 | 0.00 | 0.00 | 0.00 | 37 | 1012.4 |
| 20260509133104 | 73 | 269 | 2.6 | 5.2 | 0.00 | 0.00 | 0.00 | 38 | 1012.6 |
| 20260509132602 | 72 | 8 | 3.5 | 7.0 | 0.00 | 0.00 | 0.00 | 38 | 1012.6 |
| 20260509132118 | 72 | 34 | 4.3 | 7.8 | 0.00 | 0.00 | 0.00 | 39 | 1012.6 |
| 20260509131615 | 72 | 18 | 4.3 | 7.8 | 0.00 | 0.00 | 0.00 | 37 | 1012.7 |
| 20260509131119 | 71 | 27 | 3.5 | 7.0 | 0.00 | 0.00 | 0.00 | 38 | 1012.7 |
| 20260509125600 | 71 | 53 | 4.3 | 7.0 | 0.00 | 0.00 | 0.00 | 41 | 1012.8 |
| 20260509125103 | 72 | 76 | 4.3 | 7.0 | 0.00 | 0.00 | 0.00 | 40 | 1012.9 |
| 20260509124600 | 73 | 124 | 3.5 | 6.1 | 0.00 | 0.00 | 0.00 | 38 | 1013.0 |
| 20260509124101 | 73 | 144 | 3.5 | 5.2 | 0.00 | 0.00 | 0.00 | 38 | 1013.1 |
| 20260509123601 | 72 | 159 | 4.3 | 7.0 | 0.00 | 0.00 | 0.00 | 39 | 1013.1 |
| 20260509123102 | 71 | 139 | 4.3 | 7.0 | 0.00 | 0.00 | 0.00 | 44 | 1013.0 |
| 20260509122601 | 70 | 171 | 3.5 | 7.0 | 0.00 | 0.00 | 0.00 | 42 | 1012.9 |
| 20260509122058 | 69 | 161 | 2.6 | 5.2 | 0.00 | 0.00 | 0.00 | 47 | 1012.9 |
| 20260509121559 | 69 | 163 | 1.7 | 4.3 | 0.00 | 0.00 | 0.00 | 43 | 1012.8 |
| 20260509121058 | 68 | 140 | 3.5 | 6.1 | 0.00 | 0.00 | 0.00 | 50 | 1012.8 |
| 20260509120554 | 68 | 149 | 4.3 | 7.0 | 0.00 | 0.00 | 0.00 | 57 | 1012.7 |
| 20260509115053 | 65 | 37 | 2.6 | 5.2 | 0.00 | 0.00 | 0.00 | 58 | 1012.8 |
| 20260509114538 | 65 | 62 | 4.3 | 9.6 | 0.00 | 0.00 | 0.00 | 59 | 1012.8 |
| 20260509114036 | 66 | 32 | 4.3 | 9.6 | 0.00 | 0.00 | 0.00 | 57 | 1013.0 |
| 20260509113534 | 68 | 99 | 1.7 | 7.8 | 0.00 | 0.00 | 0.00 | 54 | 1013.2 |
| 20260509113043 | 67 | 130 | 1.7 | 5.2 | 0.00 | 0.00 | 0.00 | 57 | 1013.1 |
| 20260509112531 | 66 | 138 | 3.5 | 5.2 | 0.00 | 0.00 | 0.00 | 59 | 1013.1 |
| 20260509112030 | 65 | 160 | 4.3 | 7.0 | 0.00 | 0.00 | 0.00 | 61 | 1013.2 |
| 20260509111530 | 66 | 106 | 5.2 | 7.8 | 0.00 | 0.00 | 0.00 | 65 | 1013.2 |
| 20260509110529 | 65 | 126 | 3.5 | 7.8 | 0.00 | 0.00 | 0.00 | 60 | 1013.3 |
| 20260509110029 | 64 | 159 | 3.5 | 6.1 | 0.00 | 0.00 | 0.00 | 66 | 1013.3 |
| 20260509105530 | 63 | 148 | 3.5 | 6.1 | 0.00 | 0.00 | 0.00 | 71 | 1013.2 |
| 20260509105104 | 62 | 143 | 3.5 | 5.2 | 0.00 | 0.00 | 0.00 | 69 | 1013.3 |
| 20260509104034 | 62 | 113 | 4.3 | 7.0 | 0.00 | 0.00 | 0.00 | 74 | 1013.5 |
| 20260509103534 | 62 | 91 | 5.2 | 6.1 | 0.00 | 0.00 | 0.00 | 60 | 1013.7 |
| 20260509103028 | 62 | 143 | 5.2 | 7.0 | 0.00 | 0.00 | 0.00 | 64 | 1013.8 |
| 20260509102528 | 62 | 132 | 5.2 | 7.0 | 0.00 | 0.00 | 0.00 | 65 | 1013.7 |